Precipitable_Water
0.61 0.63 0.64 0.66 0.67 0.69 0.70 0.71 0.71 0.73 0.75 0.77 0.79 0.80 0.80 0.78 0.75 0.74 0.73 0.71 0.69 0.68 0.66 0.64 0.63 0.58 0.54 0.53 0.51 0.48 0.46 0.39 0.33 0.30 0.29 0.30 0.41 0.51 0.48 0.47 0.46 0.42 0.36 0.30 0.24 0.22 0.20 0.23 0.24 0.25 0.26 0.25 0.23 0.23 0.28 0.27 0.27 0.26 0.19 0.16 0.13 0.14 0.13 0.12 0.11 0.12 0.13 0.12 0.12 0.14 0.15 0.15 0.14 0.16 0.14 0.18 0.17 0.21 0.24 0.24 0.40 0.53 0.48 0.67 0.77 1.00 1.13 1.28
0.60 0.61 0.62 0.63 0.66 0.68 0.68 0.69 0.70 0.71 0.72 0.74 0.77 0.80 0.81 0.81 0.80 0.78 0.75 0.74 0.72 0.70 0.69 0.67 0.64 0.60 0.57 0.53 0.52 0.50 0.46 0.40 0.32 0.33 0.29 0.36 0.44 0.42 0.43 0.45 0.43 0.43 0.34 0.24 0.22 0.22 0.20 0.20 0.23 0.24 0.22 0.20 0.24 0.20 0.24 0.24 0.26 0.22 0.19 0.16 0.12 0.13 0.14 0.16 0.16 0.15 0.15 0.14 0.14 0.16 0.16 0.15 0.16 0.15 0.14 0.20 0.26 0.25 0.23 0.29 0.31 0.45 0.48 0.95 0.95 0.94 1.07 1.11
0.57 0.58 0.59 0.61 0.63 0.66 0.67 0.67 0.68 0.68 0.69 0.71 0.73 0.76 0.79 0.82 0.82 0.81 0.79 0.77 0.76 0.74 0.71 0.69 0.67 0.63 0.60 0.58 0.51 0.50 0.47 0.35 0.36 0.27 0.31 0.44 0.42 0.40 0.39 0.39 0.42 0.42 0.35 0.25 0.23 0.24 0.23 0.22 0.23 0.22 0.21 0.20 0.22 0.19 0.22 0.21 0.24 0.22 0.19 0.15 0.13 0.14 0.15 0.16 0.17 0.17 0.18 0.17 0.16 0.16 0.14 0.18 0.18 0.15 0.20 0.21 0.20 0.19 0.24 0.39 0.41 0.41 0.72 0.76 0.95 0.91 0.98 1.02
0.55 0.54 0.55 0.58 0.60 0.63 0.64 0.66 0.66 0.67 0.68 0.69 0.71 0.73 0.75 0.78 0.80 0.82 0.83 0.81 0.79 0.76 0.73 0.71 0.68 0.66 0.63 0.59 0.55 0.49 0.42 0.39 0.26 0.33 0.45 0.46 0.42 0.41 0.40 0.38 0.38 0.39 0.35 0.31 0.27 0.25 0.27 0.26 0.26 0.24 0.21 0.19 0.20 0.21 0.20 0.20 0.20 0.23 0.19 0.15 0.15 0.16 0.14 0.14 0.16 0.17 0.19 0.18 0.16 0.18 0.18 0.20 0.20 0.18 0.18 0.17 0.17 0.15 0.14 0.27 0.49 0.64 0.76 0.78 0.95 1.01 1.06 1.04
0.56 0.56 0.55 0.55 0.55 0.58 0.61 0.63 0.65 0.66 0.66 0.67 0.69 0.70 0.73 0.75 0.77 0.79 0.82 0.83 0.82 0.79 0.76 0.72 0.70 0.67 0.65 0.61 0.54 0.49 0.44 0.25 0.29 0.49 0.50 0.46 0.41 0.40 0.40 0.37 0.36 0.35 0.35 0.32 0.29 0.28 0.30 0.30 0.27 0.25 0.22 0.18 0.19 0.20 0.19 0.21 0.21 0.25 0.21 0.19 0.16 0.16 0.14 0.16 0.15 0.15 0.16 0.18 0.19 0.19 0.18 0.19 0.22 0.20 0.18 0.17 0.16 0.15 0.18 0.26 0.37 0.47 0.61 0.87 0.96 1.02 1.02 1.02
0.54 0.53 0.53 0.54 0.55 0.54 0.56 0.58 0.60 0.61 0.62 0.63 0.65 0.66 0.68 0.71 0.74 0.77 0.79 0.81 0.83 0.83 0.80 0.75 0.72 0.69 0.66 0.63 0.54 0.47 0.42 0.19 0.46 0.48 0.54 0.48 0.45 0.42 0.36 0.38 0.38 0.36 0.38 0.34 0.30 0.26 0.27 0.27 0.28 0.22 0.22 0.20 0.18 0.16 0.19 0.20 0.22 0.18 0.23 0.23 0.20 0.17 0.15 0.16 0.16 0.18 0.16 0.17 0.19 0.18 0.18 0.18 0.16 0.17 0.19 0.19 0.19 0.18 0.20 0.25 0.56 0.65 0.71 1.03 1.10 1.04 0.96 0.95
0.54 0.52 0.52 0.51 0.52 0.53 0.54 0.55 0.56 0.56 0.57 0.59 0.61 0.64 0.65 0.68 0.71 0.74 0.77 0.79 0.81 0.83 0.82 0.79 0.74 0.71 0.68 0.63 0.54 0.45 0.33 0.33 0.46 0.57 0.55 0.48 0.42 0.39 0.39 0.38 0.40 0.34 0.34 0.34 0.30 0.25 0.24 0.26 0.25 0.21 0.21 0.21 0.20 0.17 0.18 0.20 0.21 0.20 0.19 0.21 0.20 0.19 0.15 0.16 0.17 0.19 0.23 0.22 0.21 0.20 0.19 0.17 0.15 0.14 0.18 0.20 0.23 0.22 0.21 0.29 0.53 0.72 0.77 1.08 0.97 0.97 0.94 0.96
0.56 0.55 0.54 0.54 0.52 0.51 0.50 0.51 0.51 0.53 0.56 0.56 0.58 0.60 0.63 0.65 0.66 0.69 0.72 0.76 0.78 0.81 0.83 0.81 0.77 0.74 0.70 0.58 0.44 0.37 0.37 0.33 0.38 0.50 0.49 0.47 0.42 0.42 0.37 0.35 0.40 0.40 0.29 0.30 0.30 0.24 0.24 0.23 0.22 0.22 0.21 0.21 0.21 0.18 0.18 0.18 0.20 0.19 0.20 0.22 0.21 0.20 0.18 0.16 0.17 0.18 0.23 0.22 0.22 0.20 0.17 0.16 0.16 0.14 0.15 0.16 0.22 0.23 0.23 0.23 0.46 0.67 0.73 1.05 1.00 0.90 0.91 0.95
0.57 0.55 0.54 0.54 0.54 0.53 0.53 0.51 0.50 0.50 0.49 0.52 0.55 0.57 0.59 0.62 0.64 0.65 0.68 0.72 0.76 0.78 0.81 0.81 0.77 0.76 0.73 0.61 0.46 0.36 0.31 0.42 0.44 0.58 0.51 0.46 0.41 0.41 0.40 0.32 0.34 0.51 0.37 0.29 0.34 0.28 0.24 0.22 0.23 0.22 0.18 0.21 0.24 0.19 0.18 0.17 0.17 0.19 0.19 0.21 0.21 0.20 0.20 0.19 0.16 0.17 0.20 0.22 0.23 0.20 0.18 0.16 0.16 0.16 0.15 0.19 0.21 0.23 0.24 0.27 0.35 0.58 0.61 0.82 0.93 0.95 0.90 0.97
0.57 0.57 0.54 0.53 0.53 0.53 0.54 0.53 0.53 0.51 0.50 0.48 0.49 0.51 0.54 0.56 0.59 0.62 0.64 0.68 0.71 0.75 0.79 0.81 0.80 0.76 0.67 0.54 0.47 0.32 0.39 0.49 0.47 0.47 0.47 0.46 0.42 0.41 0.38 0.36 0.36 0.40 0.44 0.35 0.32 0.31 0.24 0.24 0.22 0.23 0.22 0.21 0.23 0.21 0.19 0.17 0.16 0.19 0.19 0.20 0.21 0.20 0.20 0.21 0.20 0.18 0.19 0.20 0.21 0.19 0.17 0.15 0.16 0.16 0.15 0.19 0.21 0.22 0.24 0.28 0.55 0.58 0.58 0.84 0.95 0.98 1.01 0.96
0.56 0.53 0.53 0.53 0.53 0.53 0.53 0.53 0.52 0.52 0.50 0.50 0.49 0.47 0.47 0.50 0.54 0.57 0.61 0.64 0.67 0.71 0.76 0.78 0.79 0.74 0.59 0.56 0.39 0.31 0.51 0.47 0.49 0.51 0.51 0.47 0.42 0.38 0.34 0.35 0.35 0.32 0.37 0.42 0.32 0.32 0.29 0.26 0.26 0.22 0.21 0.19 0.22 0.21 0.21 0.19 0.18 0.18 0.19 0.20 0.19 0.20 0.20 0.20 0.20 0.20 0.20 0.19 0.21 0.20 0.18 0.18 0.17 0.16 0.14 0.16 0.19 0.19 0.21 0.29 0.55 0.55 0.61 0.92 0.99 1.06 1.04 1.00
0.51 0.51 0.50 0.51 0.51 0.51 0.52 0.51 0.51 0.51 0.51 0.50 0.49 0.48 0.46 0.45 0.46 0.51 0.56 0.60 0.64 0.68 0.71 0.75 0.76 0.73 0.64 0.52 0.42 0.37 0.55 0.53 0.56 0.56 0.53 0.49 0.42 0.39 0.37 0.37 0.38 0.35 0.34 0.40 0.42 0.35 0.32 0.28 0.27 0.22 0.17 0.21 0.19 0.22 0.21 0.22 0.20 0.17 0.18 0.17 0.18 0.19 0.18 0.19 0.18 0.20 0.21 0.20 0.22 0.20 0.17 0.14 0.14 0.13 0.15 0.15 0.16 0.20 0.22 0.29 0.49 0.52 0.65 0.93 0.99 0.97 0.99 1.04
0.48 0.47 0.48 0.48 0.49 0.49 0.49 0.49 0.49 0.50 0.49 0.49 0.49 0.48 0.47 0.44 0.43 0.43 0.49 0.54 0.59 0.64 0.66 0.69 0.73 0.71 0.58 0.41 0.44 0.55 0.58 0.58 0.54 0.56 0.53 0.50 0.44 0.41 0.39 0.38 0.37 0.38 0.36 0.34 0.42 0.46 0.36 0.31 0.28 0.22 0.22 0.21 0.19 0.19 0.24 0.24 0.21 0.20 0.18 0.17 0.19 0.21 0.19 0.18 0.19 0.19 0.21 0.21 0.20 0.19 0.11 0.11 0.12 0.14 0.15 0.15 0.16 0.20 0.23 0.38 0.43 0.49 0.64 0.76 1.03 0.92 0.98 1.06
0.47 0.46 0.46 0.46 0.46 0.46 0.46 0.46 0.47 0.47 0.48 0.48 0.47 0.47 0.45 0.45 0.43 0.41 0.42 0.49 0.56 0.59 0.63 0.68 0.68 0.62 0.55 0.42 0.53 0.59 0.60 0.58 0.54 0.50 0.49 0.50 0.42 0.38 0.37 0.35 0.35 0.36 0.36 0.34 0.38 0.46 0.47 0.35 0.28 0.24 0.24 0.21 0.20 0.23 0.22 0.23 0.22 0.19 0.18 0.18 0.16 0.17 0.15 0.19 0.17 0.17 0.18 0.21 0.19 0.18 0.11 0.11 0.13 0.14 0.15 0.16 0.17 0.36 0.48 0.44 0.44 0.58 0.67 0.72 0.96 0.98 1.06 1.11
0.49 0.48 0.47 0.46 0.45 0.46 0.45 0.44 0.43 0.43 0.43 0.45 0.45 0.44 0.43 0.42 0.41 0.39 0.40 0.43 0.49 0.56 0.60 0.65 0.64 0.54 0.44 0.42 0.57 0.59 0.61 0.58 0.49 0.45 0.46 0.45 0.40 0.36 0.34 0.34 0.31 0.32 0.34 0.33 0.35 0.40 0.44 0.38 0.27 0.22 0.19 0.23 0.23 0.22 0.19 0.20 0.20 0.19 0.17 0.15 0.16 0.15 0.15 0.18 0.18 0.16 0.15 0.18 0.20 0.17 0.12 0.12 0.14 0.14 0.15 0.15 0.18 0.34 0.49 0.46 0.46 0.62 0.75 0.92 0.99 1.10 1.14 1.16
0.50 0.49 0.48 0.46 0.46 0.45 0.45 0.44 0.42 0.41 0.41 0.41 0.42 0.42 0.41 0.42 0.39 0.38 0.38 0.41 0.48 0.56 0.61 0.55 0.54 0.53 0.43 0.35 0.40 0.59 0.53 0.45 0.42 0.44 0.45 0.45 0.41 0.35 0.34 0.31 0.31 0.32 0.33 0.32 0.33 0.36 0.41 0.41 0.28 0.23 0.21 0.21 0.20 0.20 0.19 0.17 0.16 0.18 0.16 0.15 0.15 0.15 0.14 0.16 0.17 0.16 0.17 0.17 0.19 0.17 0.13 0.14 0.12 0.15 0.15 0.15 0.17 0.26 0.45 0.45 0.46 0.63 0.79 1.06 1.15 1.21 1.27 1.25
0.51 0.50 0.49 0.47 0.45 0.45 0.44 0.43 0.42 0.41 0.40 0.40 0.41 0.40 0.41 0.39 0.38 0.39 0.39 0.41 0.44 0.52 0.50 0.42 0.51 0.56 0.33 0.46 0.59 0.45 0.40 0.44 0.48 0.46 0.44 0.43 0.40 0.37 0.34 0.31 0.27 0.28 0.31 0.31 0.29 0.30 0.34 0.33 0.32 0.26 0.23 0.18 0.18 0.19 0.17 0.15 0.13 0.15 0.16 0.14 0.16 0.14 0.14 0.13 0.16 0.18 0.19 0.17 0.16 0.18 0.14 0.13 0.13 0.13 0.15 0.16 0.17 0.19 0.40 0.47 0.51 0.73 1.02 1.06 1.12 1.17 1.19 1.28
0.52 0.52 0.51 0.49 0.47 0.46 0.45 0.44 0.43 0.42 0.41 0.39 0.39 0.39 0.36 0.36 0.38 0.41 0.42 0.38 0.40 0.43 0.49 0.57 0.54 0.47 0.36 0.43 0.32 0.35 0.44 0.45 0.45 0.44 0.44 0.44 0.39 0.36 0.33 0.30 0.29 0.29 0.29 0.26 0.28 0.23 0.28 0.26 0.27 0.19 0.18 0.17 0.17 0.17 0.15 0.13 0.14 0.15 0.15 0.15 0.15 0.16 0.16 0.14 0.12 0.16 0.19 0.18 0.15 0.17 0.15 0.14 0.13 0.13 0.15 0.16 0.19 0.19 0.30 0.51 0.74 0.87 0.98 1.12 1.18 1.15 1.14 1.21
0.55 0.53 0.52 0.52 0.50 0.49 0.47 0.46 0.44 0.43 0.41 0.40 0.40 0.40 0.40 0.38 0.40 0.44 0.39 0.42 0.35 0.31 0.26 0.30 0.37 0.23 0.20 0.36 0.44 0.41 0.44 0.47 0.48 0.45 0.37 0.40 0.39 0.35 0.34 0.34 0.31 0.27 0.24 0.22 0.23 0.23 0.24 0.22 0.21 0.17 0.14 0.14 0.15 0.16 0.15 0.17 0.19 0.17 0.17 0.17 0.15 0.14 0.14 0.13 0.13 0.15 0.19 0.18 0.16 0.15 0.14 0.14 0.14 0.12 0.15 0.16 0.19 0.21 0.27 0.66 0.72 0.82 0.87 1.03 1.15 1.19 1.14 1.24
0.56 0.54 0.53 0.53 0.53 0.51 0.49 0.46 0.44 0.43 0.42 0.40 0.39 0.38 0.34 0.26 0.36 0.35 0.47 0.44 0.34 0.30 0.28 0.32 0.39 0.33 0.29 0.34 0.37 0.46 0.49 0.50 0.41 0.44 0.41 0.40 0.37 0.31 0.30 0.31 0.29 0.27 0.24 0.19 0.22 0.22 0.24 0.17 0.16 0.14 0.15 0.16 0.16 0.18 0.18 0.18 0.20 0.19 0.19 0.18 0.17 0.14 0.14 0.15 0.14 0.15 0.20 0.19 0.17 0.15 0.14 0.15 0.14 0.12 0.16 0.19 0.19 0.23 0.54 0.71 0.76 0.81 0.89 0.94 1.05 1.08 1.11 1.16
0.57 0.56 0.55 0.54 0.53 0.51 0.47 0.45 0.44 0.44 0.43 0.42 0.40 0.34 0.23 0.24 0.18 0.19 0.32 0.38 0.48 0.44 0.37 0.34 0.39 0.37 0.32 0.34 0.41 0.42 0.34 0.36 0.39 0.39 0.39 0.43 0.38 0.30 0.27 0.28 0.26 0.21 0.22 0.22 0.23 0.25 0.23 0.17 0.15 0.16 0.17 0.18 0.18 0.19 0.19 0.18 0.18 0.19 0.17 0.17 0.17 0.15 0.13 0.15 0.14 0.15 0.22 0.19 0.18 0.17 0.14 0.14 0.14 0.14 0.17 0.18 0.20 0.33 0.67 0.62 0.69 0.78 0.81 0.85 0.94 0.97 1.09 1.14
0.57 0.56 0.56 0.55 0.53 0.50 0.47 0.46 0.45 0.44 0.44 0.42 0.39 0.32 0.33 0.32 0.35 0.37 0.35 0.23 0.33 0.42 0.43 0.41 0.38 0.38 0.44 0.38 0.44 0.47 0.46 0.36 0.36 0.36 0.39 0.40 0.36 0.28 0.27 0.26 0.23 0.19 0.22 0.23 0.25 0.22 0.18 0.15 0.16 0.18 0.18 0.19 0.19 0.18 0.19 0.18 0.16 0.18 0.17 0.17 0.17 0.16 0.14 0.15 0.15 0.15 0.17 0.21 0.19 0.18 0.14 0.14 0.14 0.16 0.18 0.20 0.37 0.60 0.81 0.66 0.69 0.71 0.73 0.83 0.93 1.00 1.07 1.12
0.57 0.57 0.57 0.55 0.53 0.50 0.48 0.47 0.46 0.46 0.41 0.41 0.37 0.40 0.38 0.42 0.42 0.46 0.41 0.33 0.27 0.32 0.39 0.42 0.38 0.34 0.35 0.38 0.40 0.44 0.37 0.34 0.32 0.34 0.33 0.35 0.34 0.29 0.28 0.24 0.23 0.21 0.21 0.21 0.19 0.19 0.16 0.17 0.18 0.18 0.18 0.17 0.17 0.17 0.18 0.19 0.17 0.16 0.16 0.16 0.15 0.16 0.14 0.13 0.15 0.16 0.17 0.21 0.20 0.18 0.14 0.14 0.16 0.16 0.17 0.19 0.41 0.76 0.81 0.82 0.75 0.74 0.73 0.74 0.87 0.95 0.95 1.04
0.60 0.59 0.59 0.58 0.55 0.52 0.48 0.48 0.46 0.42 0.42 0.44 0.43 0.42 0.47 0.50 0.50 0.45 0.38 0.28 0.25 0.26 0.30 0.33 0.39 0.39 0.35 0.32 0.36 0.37 0.34 0.34 0.36 0.34 0.36 0.33 0.31 0.31 0.28 0.24 0.22 0.21 0.20 0.20 0.20 0.20 0.17 0.18 0.20 0.19 0.18 0.17 0.16 0.18 0.17 0.17 0.15 0.16 0.16 0.16 0.16 0.16 0.16 0.14 0.16 0.16 0.16 0.20 0.21 0.17 0.15 0.14 0.15 0.15 0.15 0.28 0.53 0.59 0.78 0.81 0.81 0.81 0.81 0.84 0.90 0.95 0.94 1.02
0.62 0.62 0.61 0.60 0.57 0.54 0.49 0.46 0.39 0.46 0.50 0.45 0.44 0.50 0.54 0.55 0.49 0.50 0.34 0.31 0.30 0.26 0.31 0.31 0.36 0.36 0.39 0.47 0.41 0.32 0.33 0.36 0.36 0.40 0.38 0.34 0.31 0.29 0.26 0.28 0.24 0.20 0.20 0.21 0.21 0.21 0.21 0.21 0.20 0.18 0.17 0.17 0.16 0.17 0.17 0.16 0.15 0.15 0.16 0.17 0.19 0.19 0.17 0.16 0.19 0.17 0.16 0.17 0.19 0.17 0.13 0.13 0.14 0.15 0.16 0.22 0.42 0.51 0.61 0.60 0.66 0.73 0.79 0.83 0.85 0.90 0.99 1.04
0.64 0.64 0.63 0.62 0.59 0.54 0.50 0.37 0.43 0.48 0.43 0.38 0.43 0.48 0.53 0.50 0.52 0.48 0.38 0.24 0.16 0.19 0.23 0.18 0.29 0.23 0.39 0.33 0.35 0.33 0.35 0.27 0.37 0.40 0.41 0.39 0.37 0.30 0.28 0.26 0.24 0.19 0.21 0.21 0.20 0.21 0.22 0.22 0.20 0.17 0.16 0.16 0.16 0.17 0.19 0.18 0.16 0.14 0.14 0.18 0.20 0.21 0.19 0.17 0.19 0.18 0.16 0.15 0.18 0.19 0.13 0.11 0.15 0.14 0.15 0.17 0.47 0.41 0.55 0.54 0.59 0.64 0.68 0.79 0.86 0.91 0.97 1.00
0.66 0.66 0.64 0.62 0.59 0.55 0.40 0.32 0.46 0.44 0.34 0.41 0.54 0.53 0.50 0.49 0.50 0.43 0.25 0.17 0.13 0.20 0.15 0.20 0.24 0.25 0.29 0.27 0.32 0.34 0.20 0.22 0.36 0.40 0.39 0.42 0.35 0.37 0.26 0.24 0.24 0.24 0.24 0.24 0.21 0.18 0.22 0.22 0.20 0.19 0.18 0.17 0.16 0.16 0.19 0.18 0.16 0.14 0.17 0.18 0.21 0.22 0.19 0.17 0.17 0.18 0.18 0.20 0.20 0.19 0.16 0.12 0.14 0.16 0.17 0.18 0.55 0.46 0.54 0.55 0.54 0.57 0.65 0.73 0.83 0.90 0.94 0.99
0.68 0.67 0.65 0.61 0.58 0.55 0.44 0.43 0.39 0.36 0.38 0.50 0.56 0.53 0.48 0.45 0.47 0.42 0.25 0.11 0.09 0.26 0.21 0.19 0.23 0.34 0.27 0.28 0.30 0.24 0.22 0.33 0.27 0.31 0.38 0.40 0.39 0.35 0.29 0.24 0.23 0.21 0.23 0.23 0.17 0.19 0.22 0.22 0.21 0.19 0.18 0.17 0.17 0.17 0.19 0.19 0.16 0.16 0.19 0.20 0.21 0.23 0.21 0.18 0.16 0.17 0.19 0.20 0.18 0.19 0.17 0.12 0.13 0.19 0.20 0.19 0.40 0.50 0.55 0.56 0.55 0.58 0.65 0.69 0.77 0.87 0.94 1.00
0.70 0.67 0.66 0.62 0.57 0.54 0.54 0.49 0.43 0.36 0.49 0.51 0.53 0.53 0.49 0.48 0.43 0.28 0.18 0.10 0.26 0.30 0.36 0.22 0.37 0.33 0.28 0.27 0.23 0.25 0.28 0.33 0.26 0.30 0.36 0.39 0.38 0.35 0.26 0.27 0.25 0.22 0.24 0.23 0.20 0.22 0.23 0.23 0.22 0.21 0.18 0.17 0.20 0.21 0.20 0.20 0.16 0.18 0.22 0.22 0.22 0.22 0.20 0.16 0.16 0.15 0.16 0.18 0.17 0.17 0.15 0.11 0.09 0.15 0.20 0.21 0.32 0.45 0.51 0.57 0.60 0.62 0.66 0.66 0.72 0.87 0.96 1.01
0.71 0.68 0.65 0.62 0.54 0.51 0.52 0.55 0.47 0.51 0.52 0.51 0.53 0.50 0.44 0.43 0.33 0.18 0.14 0.08 0.36 0.24 0.38 0.39 0.30 0.26 0.28 0.23 0.21 0.23 0.26 0.30 0.31 0.31 0.32 0.32 0.33 0.36 0.32 0.34 0.26 0.22 0.22 0.23 0.23 0.25 0.24 0.25 0.27 0.23 0.19 0.19 0.21 0.22 0.21 0.21 0.20 0.20 0.22 0.21 0.19 0.19 0.19 0.19 0.20 0.18 0.17 0.16 0.16 0.18 0.16 0.13 0.10 0.11 0.15 0.20 0.29 0.53 0.50 0.61 0.71 0.70 0.75 0.74 0.82 0.89 0.92 0.98
0.69 0.65 0.63 0.60 0.50 0.48 0.47 0.38 0.46 0.52 0.54 0.58 0.55 0.47 0.41 0.34 0.20 0.14 0.10 0.17 0.31 0.35 0.42 0.39 0.31 0.31 0.26 0.22 0.19 0.21 0.26 0.30 0.27 0.28 0.27 0.32 0.30 0.32 0.31 0.27 0.29 0.22 0.21 0.22 0.22 0.25 0.25 0.25 0.24 0.24 0.23 0.22 0.23 0.21 0.22 0.22 0.21 0.19 0.20 0.18 0.18 0.17 0.18 0.18 0.19 0.18 0.15 0.13 0.15 0.18 0.17 0.15 0.11 0.12 0.13 0.18 0.23 0.50 0.49 0.43 0.51 0.61 0.69 0.77 0.81 0.88 0.92 0.94
0.64 0.62 0.62 0.57 0.55 0.54 0.41 0.37 0.47 0.53 0.52 0.56 0.44 0.36 0.34 0.19 0.20 0.14 0.13 0.36 0.19 0.30 0.31 0.32 0.38 0.38 0.27 0.28 0.24 0.20 0.22 0.27 0.28 0.26 0.25 0.27 0.26 0.26 0.26 0.22 0.24 0.18 0.17 0.19 0.19 0.24 0.23 0.23 0.25 0.24 0.23 0.21 0.21 0.20 0.20 0.19 0.18 0.18 0.19 0.17 0.15 0.15 0.15 0.14 0.17 0.15 0.13 0.13 0.17 0.19 0.18 0.15 0.14 0.14 0.15 0.16 0.23 0.40 0.55 0.50 0.50 0.55 0.66 0.77 0.82 0.87 0.92 0.95
0.60 0.60 0.60 0.58 0.57 0.51 0.48 0.49 0.51 0.55 0.50 0.47 0.37 0.34 0.23 0.18 0.11 0.16 0.17 0.24 0.20 0.33 0.30 0.40 0.37 0.34 0.34 0.26 0.24 0.21 0.25 0.24 0.26 0.25 0.26 0.27 0.26 0.25 0.28 0.27 0.26 0.22 0.16 0.19 0.20 0.21 0.22 0.26 0.24 0.24 0.21 0.21 0.20 0.17 0.17 0.17 0.19 0.18 0.17 0.17 0.16 0.14 0.13 0.12 0.13 0.14 0.15 0.17 0.20 0.18 0.19 0.16 0.18 0.19 0.18 0.20 0.20 0.30 0.50 0.57 0.53 0.52 0.61 0.68 0.80 0.87 0.89 0.96
0.60 0.61 0.55 0.56 0.55 0.55 0.54 0.51 0.47 0.47 0.41 0.40 0.33 0.26 0.21 0.15 0.14 0.26 0.24 0.27 0.26 0.36 0.35 0.34 0.36 0.37 0.34 0.25 0.23 0.22 0.21 0.27 0.24 0.24 0.26 0.25 0.25 0.23 0.26 0.28 0.26 0.23 0.22 0.21 0.19 0.19 0.18 0.19 0.21 0.20 0.17 0.19 0.18 0.21 0.19 0.17 0.18 0.17 0.18 0.16 0.17 0.17 0.14 0.12 0.13 0.13 0.14 0.16 0.18 0.19 0.17 0.14 0.15 0.21 0.22 0.21 0.26 0.33 0.39 0.56 0.60 0.64 0.65 0.70 0.77 0.86 0.88 0.91
0.61 0.61 0.60 0.55 0.56 0.57 0.56 0.55 0.51 0.50 0.45 0.40 0.30 0.24 0.15 0.14 0.19 0.20 0.23 0.27 0.31 0.33 0.31 0.38 0.34 0.32 0.29 0.29 0.27 0.22 0.22 0.23 0.25 0.25 0.25 0.24 0.22 0.23 0.23 0.25 0.26 0.25 0.23 0.20 0.22 0.21 0.21 0.19 0.22 0.23 0.24 0.26 0.23 0.22 0.20 0.18 0.16 0.16 0.16 0.17 0.18 0.18 0.19 0.14 0.15 0.16 0.16 0.16 0.15 0.16 0.16 0.18 0.18 0.41 0.28 0.22 0.25 0.32 0.37 0.57 0.56 0.59 0.66 0.79 0.83 0.85 0.84 0.91
0.58 0.57 0.58 0.50 0.50 0.50 0.54 0.50 0.51 0.51 0.44 0.35 0.25 0.19 0.17 0.21 0.19 0.27 0.26 0.35 0.34 0.31 0.32 0.34 0.33 0.28 0.28 0.26 0.28 0.19 0.23 0.24 0.25 0.25 0.23 0.23 0.24 0.23 0.25 0.26 0.25 0.24 0.22 0.20 0.22 0.19 0.21 0.20 0.25 0.27 0.29 0.27 0.23 0.23 0.20 0.17 0.13 0.15 0.15 0.15 0.18 0.23 0.22 0.18 0.17 0.17 0.22 0.17 0.14 0.17 0.16 0.21 0.38 0.34 0.39 0.27 0.27 0.31 0.34 0.51 0.52 0.54 0.60 0.75 0.81 0.81 0.86 0.89
0.51 0.52 0.47 0.47 0.46 0.51 0.51 0.50 0.49 0.49 0.43 0.33 0.25 0.19 0.24 0.27 0.31 0.30 0.34 0.32 0.34 0.37 0.32 0.24 0.28 0.28 0.26 0.24 0.23 0.18 0.22 0.28 0.25 0.23 0.21 0.23 0.22 0.25 0.24 0.25 0.28 0.25 0.26 0.26 0.23 0.26 0.21 0.24 0.29 0.25 0.23 0.28 0.26 0.24 0.21 0.18 0.18 0.16 0.14 0.16 0.22 0.26 0.24 0.20 0.16 0.17 0.16 0.15 0.15 0.17 0.16 0.17 0.22 0.25 0.33 0.34 0.33 0.34 0.34 0.36 0.58 0.58 0.65 0.68 0.78 0.80 0.78 0.87
0.51 0.47 0.44 0.44 0.46 0.50 0.52 0.52 0.51 0.47 0.39 0.32 0.25 0.26 0.31 0.26 0.34 0.32 0.35 0.35 0.37 0.37 0.30 0.28 0.29 0.37 0.29 0.26 0.23 0.18 0.22 0.24 0.24 0.23 0.21 0.23 0.20 0.25 0.24 0.22 0.26 0.25 0.26 0.27 0.25 0.25 0.29 0.24 0.27 0.28 0.27 0.27 0.25 0.21 0.18 0.19 0.19 0.16 0.15 0.18 0.19 0.17 0.16 0.18 0.18 0.15 0.14 0.14 0.15 0.16 0.18 0.18 0.20 0.25 0.34 0.36 0.34 0.34 0.35 0.37 0.46 0.61 0.59 0.63 0.75 0.78 0.82 0.88
0.52 0.46 0.35 0.41 0.50 0.52 0.53 0.55 0.48 0.43 0.36 0.28 0.25 0.25 0.31 0.31 0.33 0.32 0.34 0.37 0.39 0.36 0.29 0.32 0.29 0.33 0.34 0.28 0.29 0.21 0.21 0.22 0.24 0.22 0.21 0.21 0.20 0.24 0.24 0.23 0.22 0.25 0.26 0.29 0.28 0.28 0.28 0.24 0.25 0.29 0.27 0.26 0.23 0.19 0.16 0.15 0.17 0.18 0.18 0.18 0.20 0.18 0.16 0.16 0.17 0.19 0.19 0.15 0.15 0.16 0.17 0.16 0.20 0.22 0.32 0.36 0.38 0.36 0.37 0.37 0.40 0.50 0.63 0.60 0.69 0.72 0.78 0.81
0.45 0.41 0.33 0.46 0.50 0.54 0.57 0.52 0.45 0.40 0.34 0.26 0.27 0.29 0.33 0.28 0.32 0.33 0.36 0.38 0.35 0.34 0.31 0.31 0.35 0.31 0.33 0.35 0.34 0.26 0.21 0.24 0.24 0.22 0.22 0.23 0.23 0.26 0.24 0.24 0.22 0.24 0.27 0.28 0.27 0.30 0.24 0.28 0.22 0.25 0.28 0.25 0.19 0.18 0.16 0.16 0.16 0.17 0.17 0.15 0.16 0.15 0.18 0.18 0.19 0.19 0.18 0.16 0.16 0.15 0.16 0.18 0.22 0.24 0.31 0.37 0.39 0.41 0.38 0.37 0.40 0.44 0.63 0.66 0.70 0.72 0.70 0.72
0.51 0.40 0.37 0.48 0.53 0.56 0.57 0.47 0.38 0.34 0.33 0.35 0.35 0.31 0.32 0.29 0.34 0.35 0.38 0.42 0.40 0.46 0.37 0.35 0.34 0.32 0.34 0.33 0.30 0.33 0.26 0.24 0.25 0.22 0.23 0.23 0.24 0.22 0.25 0.24 0.24 0.23 0.26 0.26 0.26 0.28 0.24 0.26 0.25 0.25 0.23 0.21 0.19 0.19 0.19 0.21 0.20 0.18 0.16 0.15 0.15 0.14 0.15 0.14 0.14 0.19 0.18 0.18 0.16 0.15 0.14 0.20 0.34 0.37 0.32 0.37 0.43 0.40 0.38 0.37 0.37 0.38 0.48 0.74 0.73 0.74 0.74 0.75
0.45 0.29 0.32 0.47 0.52 0.54 0.48 0.35 0.36 0.41 0.36 0.31 0.28 0.32 0.32 0.40 0.36 0.37 0.39 0.42 0.42 0.39 0.46 0.41 0.40 0.39 0.38 0.35 0.36 0.33 0.31 0.25 0.25 0.23 0.23 0.22 0.26 0.26 0.25 0.26 0.24 0.25 0.24 0.24 0.24 0.28 0.27 0.28 0.28 0.23 0.22 0.23 0.24 0.24 0.24 0.24 0.22 0.20 0.18 0.16 0.17 0.16 0.16 0.15 0.13 0.16 0.17 0.19 0.21 0.20 0.16 0.21 0.41 0.43 0.41 0.45 0.49 0.47 0.42 0.41 0.39 0.36 0.41 0.73 0.78 0.83 0.84 0.83
0.41 0.36 0.50 0.54 0.55 0.50 0.42 0.33 0.35 0.36 0.32 0.36 0.38 0.39 0.41 0.41 0.38 0.42 0.40 0.43 0.40 0.44 0.42 0.41 0.39 0.39 0.41 0.39 0.37 0.34 0.35 0.26 0.24 0.22 0.23 0.24 0.26 0.27 0.26 0.26 0.25 0.25 0.26 0.24 0.25 0.29 0.30 0.26 0.27 0.27 0.26 0.26 0.26 0.26 0.25 0.25 0.22 0.19 0.19 0.19 0.17 0.15 0.15 0.16 0.16 0.19 0.18 0.19 0.19 0.20 0.17 0.29 0.48 0.51 0.50 0.53 0.55 0.52 0.49 0.43 0.42 0.45 0.65 0.74 0.82 0.83 0.87 0.89
0.45 0.43 0.46 0.59 0.58 0.50 0.36 0.27 0.25 0.27 0.29 0.33 0.37 0.37 0.43 0.42 0.42 0.41 0.41 0.43 0.42 0.41 0.40 0.41 0.43 0.48 0.40 0.45 0.42 0.33 0.36 0.24 0.24 0.24 0.23 0.26 0.27 0.30 0.27 0.25 0.24 0.22 0.24 0.24 0.25 0.30 0.24 0.27 0.27 0.23 0.21 0.22 0.22 0.23 0.22 0.23 0.23 0.20 0.18 0.19 0.19 0.17 0.17 0.19 0.20 0.20 0.19 0.20 0.20 0.20 0.17 0.26 0.50 0.56 0.50 0.54 0.52 0.49 0.49 0.51 0.62 0.65 0.74 0.79 0.82 0.88 0.92 0.94
0.48 0.51 0.49 0.53 0.60 0.52 0.34 0.36 0.34 0.33 0.33 0.34 0.35 0.35 0.37 0.40 0.46 0.47 0.45 0.43 0.49 0.46 0.44 0.41 0.44 0.44 0.42 0.44 0.40 0.38 0.36 0.27 0.22 0.26 0.25 0.25 0.28 0.30 0.25 0.26 0.27 0.23 0.23 0.26 0.29 0.32 0.27 0.28 0.27 0.20 0.17 0.16 0.15 0.15 0.15 0.16 0.18 0.19 0.19 0.19 0.19 0.18 0.17 0.17 0.16 0.19 0.18 0.22 0.21 0.20 0.24 0.36 0.43 0.54 0.49 0.58 0.69 0.72 0.79 0.72 0.76 0.73 0.74 0.78 0.83 0.88 0.92 0.93
0.42 0.32 0.40 0.44 0.52 0.49 0.46 0.49 0.44 0.39 0.36 0.36 0.34 0.36 0.39 0.37 0.44 0.49 0.50 0.46 0.50 0.49 0.48 0.45 0.46 0.46 0.41 0.41 0.37 0.32 0.31 0.30 0.25 0.25 0.25 0.24 0.28 0.28 0.28 0.27 0.26 0.24 0.26 0.29 0.30 0.31 0.28 0.28 0.28 0.25 0.21 0.18 0.19 0.20 0.22 0.20 0.20 0.19 0.20 0.20 0.19 0.18 0.18 0.18 0.18 0.19 0.19 0.21 0.20 0.20 0.27 0.34 0.37 0.44 0.47 0.55 0.64 0.69 0.79 0.79 0.74 0.77 0.82 0.82 0.86 0.88 0.91 0.91
0.48 0.37 0.37 0.33 0.42 0.43 0.40 0.44 0.41 0.42 0.36 0.42 0.33 0.37 0.35 0.38 0.41 0.44 0.53 0.42 0.48 0.47 0.44 0.43 0.42 0.38 0.38 0.38 0.35 0.34 0.30 0.26 0.28 0.27 0.24 0.24 0.26 0.28 0.27 0.28 0.28 0.25 0.27 0.28 0.31 0.30 0.27 0.27 0.26 0.26 0.24 0.23 0.23 0.22 0.22 0.21 0.19 0.19 0.19 0.19 0.20 0.20 0.21 0.21 0.19 0.18 0.22 0.21 0.19 0.23 0.39 0.36 0.34 0.39 0.43 0.54 0.63 0.71 0.77 0.80 0.77 0.81 0.85 0.86 0.89 0.90 0.90 0.91
0.37 0.42 0.45 0.47 0.37 0.32 0.35 0.36 0.42 0.40 0.42 0.43 0.38 0.42 0.37 0.38 0.39 0.37 0.46 0.50 0.49 0.50 0.41 0.42 0.43 0.44 0.43 0.39 0.37 0.32 0.36 0.29 0.27 0.25 0.26 0.26 0.24 0.27 0.27 0.28 0.26 0.27 0.28 0.28 0.30 0.29 0.26 0.24 0.26 0.25 0.24 0.25 0.23 0.22 0.22 0.22 0.21 0.21 0.21 0.21 0.20 0.20 0.21 0.21 0.21 0.21 0.23 0.20 0.20 0.26 0.36 0.31 0.31 0.37 0.47 0.63 0.64 0.68 0.75 0.76 0.80 0.85 0.91 0.93 0.90 0.86 0.86 0.86
0.49 0.46 0.45 0.51 0.37 0.40 0.40 0.41 0.44 0.43 0.42 0.43 0.41 0.42 0.38 0.39 0.38 0.42 0.42 0.43 0.44 0.43 0.48 0.35 0.36 0.43 0.43 0.44 0.41 0.35 0.34 0.30 0.25 0.27 0.26 0.25 0.26 0.25 0.24 0.24 0.25 0.27 0.27 0.28 0.29 0.30 0.27 0.25 0.27 0.26 0.25 0.24 0.23 0.23 0.23 0.21 0.22 0.21 0.21 0.21 0.20 0.20 0.20 0.21 0.22 0.23 0.23 0.23 0.24 0.26 0.28 0.29 0.36 0.37 0.40 0.60 0.67 0.66 0.71 0.75 0.78 0.81 0.85 0.88 0.87 0.85 0.85 0.87
0.41 0.40 0.38 0.47 0.45 0.41 0.42 0.42 0.43 0.43 0.40 0.43 0.38 0.40 0.41 0.40 0.39 0.43 0.46 0.45 0.39 0.43 0.52 0.43 0.44 0.46 0.47 0.43 0.42 0.39 0.39 0.44 0.44 0.37 0.35 0.41 0.26 0.24 0.23 0.23 0.22 0.25 0.26 0.27 0.27 0.29 0.27 0.24 0.27 0.26 0.25 0.24 0.24 0.24 0.23 0.23 0.22 0.19 0.21 0.22 0.23 0.23 0.22 0.21 0.21 0.23 0.26 0.25 0.25 0.25 0.27 0.28 0.35 0.50 0.54 0.69 0.67 0.69 0.70 0.69 0.70 0.75 0.79 0.82 0.82 0.81 0.82 0.85
0.55 0.56 0.52 0.40 0.35 0.37 0.41 0.40 0.40 0.40 0.39 0.41 0.39 0.40 0.40 0.42 0.41 0.45 0.44 0.50 0.46 0.43 0.48 0.45 0.49 0.50 0.49 0.45 0.48 0.44 0.49 0.50 0.51 0.45 0.50 0.40 0.25 0.26 0.23 0.23 0.25 0.22 0.23 0.24 0.24 0.28 0.27 0.27 0.28 0.27 0.22 0.23 0.26 0.25 0.22 0.24 0.25 0.22 0.21 0.21 0.22 0.22 0.21 0.21 0.20 0.23 0.23 0.23 0.25 0.25 0.25 0.28 0.40 0.55 0.64 0.65 0.66 0.64 0.63 0.63 0.63 0.66 0.73 0.76 0.78 0.80 0.79 0.81
0.61 0.60 0.57 0.48 0.35 0.40 0.36 0.39 0.39 0.39 0.34 0.41 0.41 0.41 0.40 0.40 0.45 0.47 0.41 0.48 0.51 0.52 0.50 0.48 0.48 0.50 0.49 0.50 0.46 0.48 0.51 0.55 0.55 0.53 0.51 0.47 0.46 0.33 0.26 0.27 0.26 0.25 0.23 0.25 0.27 0.27 0.27 0.28 0.25 0.24 0.22 0.23 0.26 0.25 0.23 0.23 0.22 0.21 0.21 0.22 0.23 0.23 0.24 0.24 0.23 0.23 0.23 0.25 0.25 0.24 0.25 0.47 0.48 0.52 0.51 0.56 0.63 0.65 0.62 0.58 0.58 0.64 0.68 0.70 0.70 0.72 0.75 0.77
Wind_Speed
30 30 31 31 31 31 31 31 31 31 32 32 32 32 32 33 33 33 33 32 32 31 31 31 31 31 31 31 31 32 32 32 33 33 34 34 33 33 32 31 32 32 33 33 34 33 33 32 32 32 31 30 30 29 29 29 28 27 27 29 31 31 30 29 28 26 25 25 22 21 23 25 25 24 22 22 24 23 23 25 24 23 22 20 18 20 21 19
29 29 30 31 31 31 31 31 31 31 32 32 32 32 33 33 33 33 33 33 33 32 31 31 31 30 31 31 31 31 32 32 34 35 36 34 33 33 32 32 32 32 32 33 33 33 33 33 32 32 31 30 30 30 29 29 29 28 26 28 30 30 30 28 28 27 26 25 22 21 20 21 22 22 21 20 21 20 21 22 22 21 18 18 19 19 19 19
29 29 30 30 31 31 31 32 32 32 32 32 32 33 33 33 33 34 34 34 34 33 32 32 31 30 30 31 31 31 31 32 34 34 33 32 32 32 32 32 33 32 32 32 33 33 34 33 32 32 32 31 30 30 30 29 29 29 28 28 28 28 29 28 28 28 28 26 24 21 18 20 23 21 20 20 20 20 20 18 19 19 17 18 19 17 18 19
29 29 30 30 30 31 31 32 32 32 33 33 33 33 33 33 33 34 34 34 35 34 33 32 32 31 30 30 30 30 30 32 32 31 28 28 30 31 32 32 32 32 32 32 33 33 33 34 33 32 32 31 31 31 30 30 29 29 29 29 27 26 27 28 28 28 28 25 24 23 19 21 24 23 22 22 22 20 20 18 19 20 19 20 19 18 18 18
30 30 30 31 31 31 32 32 33 33 33 34 34 34 34 33 33 34 34 34 34 35 34 33 32 31 31 30 30 30 29 29 28 28 27 27 28 29 30 31 31 32 31 32 32 33 33 34 33 32 32 31 31 31 31 32 30 28 30 30 29 27 25 25 26 27 27 25 25 26 23 21 21 22 24 24 23 20 18 18 19 19 19 21 20 18 18 18
32 32 32 32 32 32 33 33 33 34 34 34 34 34 34 34 34 34 34 34 34 34 35 34 33 32 31 31 30 30 30 28 26 26 26 26 26 28 29 29 30 31 31 32 32 32 33 33 33 32 32 31 32 32 31 32 32 30 30 30 30 30 28 25 24 23 24 26 26 26 26 24 22 22 24 25 24 22 20 18 17 17 18 21 21 19 19 19
32 33 33 33 33 33 33 34 34 34 34 34 34 34 34 34 34 34 34 34 34 34 34 34 34 33 32 31 31 32 33 32 30 28 28 27 26 27 28 28 29 31 32 32 32 32 32 33 33 32 31 31 32 32 32 31 33 32 30 29 30 30 30 29 26 22 22 25 25 24 25 27 26 24 24 25 25 24 23 21 19 18 17 21 22 20 19 20
32 32 32 33 33 33 33 34 34 34 34 34 35 34 34 34 34 34 34 34 34 34 34 33 33 33 32 31 31 32 33 34 32 30 29 28 28 27 27 28 29 31 32 33 33 32 32 33 34 32 30 31 31 31 32 31 31 33 31 29 29 29 29 30 30 27 24 23 24 25 26 27 27 25 25 25 25 25 24 23 23 22 20 22 23 21 20 20
33 32 32 32 32 32 33 33 33 34 34 34 35 35 35 34 34 34 34 34 34 34 34 33 33 33 32 32 32 33 33 32 31 30 28 28 28 27 27 28 29 30 32 33 33 33 33 33 33 32 30 30 31 31 32 31 30 31 32 31 29 29 28 28 30 30 28 24 24 26 27 27 26 25 25 25 25 24 24 24 24 24 23 23 24 21 20 20
33 33 33 33 33 33 33 33 33 33 33 34 34 35 35 35 35 35 34 34 34 34 34 34 33 32 33 33 34 34 31 30 30 30 28 27 28 28 28 28 28 29 31 32 33 34 33 32 32 31 30 30 30 31 32 32 30 29 30 31 32 31 29 28 28 30 29 27 26 26 26 26 26 26 25 25 26 24 25 25 24 24 24 24 24 22 20 20
34 34 34 34 34 34 34 34 34 34 34 34 34 34 35 35 35 35 35 34 34 34 34 34 33 33 33 34 36 34 30 29 29 29 28 28 29 29 29 29 28 29 30 31 33 34 34 33 30 29 29 29 30 31 32 32 31 30 30 29 31 32 31 30 28 28 28 27 27 27 26 26 26 27 26 25 25 25 28 27 26 26 25 24 25 23 21 22
34 34 34 34 35 35 35 35 35 34 34 34 34 34 34 35 35 36 35 35 34 34 34 34 34 33 34 36 38 35 33 35 34 32 31 29 30 30 30 30 29 29 30 30 32 33 34 33 32 30 29 28 29 28 29 32 32 31 30 29 29 30 32 33 30 28 27 26 26 25 26 27 27 27 27 25 25 26 27 28 27 28 27 26 27 25 23 23
35 35 35 34 35 35 35 35 35 35 35 35 35 34 34 35 35 35 36 35 35 34 34 34 34 34 35 37 36 35 36 38 37 36 34 32 32 31 31 31 30 30 30 30 30 31 33 33 33 32 30 28 29 27 26 28 31 30 30 29 28 27 30 33 32 29 28 27 26 25 25 26 26 28 27 25 25 24 23 25 27 28 29 28 28 26 24 24
35 35 35 35 35 35 35 35 35 35 35 36 36 36 35 35 35 35 36 36 35 35 34 34 34 34 36 36 34 35 38 38 38 38 36 34 33 32 31 31 31 31 30 31 30 30 31 33 33 32 32 30 28 28 27 25 27 29 29 29 28 27 28 30 32 31 29 27 27 26 25 24 24 26 27 25 25 24 23 24 26 27 28 28 28 27 25 25
35 35 35 35 35 35 35 35 35 36 36 36 36 36 36 36 36 36 36 36 35 35 35 34 34 34 36 36 33 34 36 37 39 38 37 36 35 33 32 31 32 31 30 30 31 30 29 31 33 32 31 32 29 28 28 26 26 27 28 29 29 28 27 27 30 31 30 27 27 27 25 24 23 24 25 26 26 26 25 24 25 27 27 25 26 26 25 25
35 34 34 34 34 34 34 35 35 36 36 36 36 36 36 36 36 36 36 36 36 35 34 34 34 34 35 33 31 32 33 35 37 36 37 37 36 34 32 31 32 32 31 30 30 30 30 30 32 32 31 31 31 28 26 27 27 27 29 29 28 28 27 25 27 31 30 27 27 28 25 23 23 23 24 25 27 28 25 24 25 24 23 23 24 24 23 24
34 34 34 34 34 34 34 34 35 35 35 36 36 36 35 36 36 36 36 36 36 35 35 34 33 34 35 32 30 32 32 33 33 34 35 36 36 35 33 32 32 32 31 30 30 31 31 31 30 31 31 31 31 29 27 28 28 27 28 28 27 27 26 25 25 28 30 28 27 28 27 25 23 23 24 25 27 28 26 24 22 19 18 21 23 22 22 22
34 34 33 33 33 33 34 34 34 34 35 35 35 35 35 36 35 35 35 34 34 34 35 35 34 32 32 32 32 33 32 30 30 31 33 34 35 35 34 32 31 31 31 30 31 32 32 31 30 30 31 32 32 32 31 29 27 26 26 26 26 26 26 27 25 25 29 29 27 28 27 26 25 24 24 25 27 28 26 22 18 17 17 18 20 20 20 21
34 33 33 33 33 33 33 33 34 33 33 33 33 33 34 35 34 33 33 33 33 33 33 34 35 33 28 27 29 30 31 30 29 30 31 32 33 34 34 33 31 31 31 29 30 32 31 30 31 32 33 34 34 34 33 29 26 26 26 25 26 26 25 26 25 23 27 28 27 28 26 25 25 25 25 24 26 27 22 18 18 18 18 18 18 17 19 20
33 33 32 32 32 33 33 33 33 32 32 31 30 31 30 29 28 28 29 32 34 34 34 34 36 37 34 30 27 26 29 30 30 30 30 31 32 34 35 33 32 32 31 29 29 30 31 31 33 35 34 35 35 35 33 30 27 26 26 25 26 26 25 25 25 23 25 25 26 27 27 25 23 24 24 22 24 24 18 17 19 20 19 19 19 17 18 20
32 32 33 33 33 33 33 33 32 31 30 29 29 29 27 26 25 26 27 30 34 36 37 37 37 39 38 35 30 28 28 29 30 31 32 32 32 33 34 34 33 32 32 31 28 29 31 33 35 35 34 33 34 34 32 31 30 27 25 25 25 26 25 25 25 24 25 23 23 26 27 25 23 24 22 20 22 22 19 19 19 20 19 19 19 18 18 19
33 33 33 33 33 33 33 32 31 30 29 29 28 27 26 26 26 27 27 30 33 35 37 38 39 40 39 38 35 32 31 30 30 31 32 33 34 33 34 34 33 32 32 31 29 29 32 34 34 34 33 32 33 34 32 31 32 29 25 24 23 25 25 24 24 26 25 22 21 24 26 24 23 24 22 20 20 19 18 20 20 20 20 19 19 18 18 18
33 33 33 33 33 33 32 31 30 29 28 27 27 27 27 27 27 27 27 29 31 33 35 36 38 40 39 39 37 35 33 32 31 31 33 34 35 34 34 34 33 32 33 33 32 31 31 32 33 33 33 33 32 33 33 31 31 30 26 24 23 23 25 24 23 26 26 22 20 21 23 23 22 24 23 19 18 18 18 19 20 20 20 20 20 19 19 20
32 32 32 32 32 32 31 31 30 28 26 26 26 26 26 25 25 26 26 27 29 31 34 36 36 38 39 37 37 37 36 34 33 31 33 35 35 34 34 34 34 33 33 35 35 32 30 30 31 32 33 34 32 32 33 31 29 31 30 26 22 22 25 24 21 24 25 22 21 20 20 22 23 24 24 19 17 20 20 20 20 19 19 19 20 20 20 21
32 32 32 32 32 31 31 30 28 25 24 24 25 24 24 23 22 23 23 24 26 27 31 34 35 36 37 36 37 38 35 35 36 33 33 35 36 34 33 33 33 33 34 35 35 32 29 29 30 33 33 34 33 31 33 31 28 30 31 29 25 21 24 26 22 22 24 22 22 22 20 20 23 25 25 21 19 21 22 21 21 19 18 18 18 20 21 22
33 33 33 32 32 32 30 28 25 24 24 23 22 22 22 21 20 20 20 22 24 24 27 30 30 31 34 35 36 37 35 35 37 36 34 35 36 34 32 32 32 33 33 33 31 29 28 29 30 33 33 34 34 31 32 32 29 28 30 31 28 22 22 26 24 22 22 21 21 24 22 19 21 25 26 23 21 23 23 22 21 20 19 19 18 20 21 21
33 33 33 32 31 30 28 26 25 25 23 20 19 19 19 18 18 17 17 19 19 18 22 26 25 25 29 32 35 36 33 31 35 38 36 35 36 35 33 32 32 32 31 29 29 29 29 30 31 32 33 33 33 31 31 32 30 27 28 31 29 24 22 26 26 22 20 20 20 23 25 22 20 22 25 25 22 23 24 22 21 20 20 20 19 20 21 21
33 33 32 31 30 29 27 26 25 22 20 18 18 17 16 16 15 14 14 15 12 10 16 21 23 22 24 30 35 37 31 26 30 37 37 35 36 36 34 33 32 32 32 30 30 29 30 31 31 32 33 31 32 31 31 32 30 27 26 29 30 25 23 24 26 24 21 18 19 22 26 24 21 19 22 24 24 23 23 23 21 21 21 21 20 21 22 22
33 32 31 30 29 27 25 23 21 19 18 17 15 14 13 13 12 12 13 13 9 7 10 15 19 21 22 28 34 36 33 26 26 33 36 35 36 36 33 32 31 32 33 31 29 28 28 31 30 31 31 30 30 31 31 31 30 27 25 28 29 26 23 22 23 25 23 20 19 21 25 24 22 20 20 22 24 23 22 21 21 21 21 21 21 21 22 22
32 31 30 28 25 23 21 19 17 16 14 12 12 12 11 9 9 11 12 11 7 5 8 12 16 20 22 26 31 34 34 28 24 30 35 34 36 36 32 30 30 30 31 31 30 28 28 29 29 29 30 29 29 30 30 30 30 28 26 26 27 26 24 21 20 23 24 22 22 23 25 25 22 21 22 21 22 23 23 21 20 21 21 21 21 21 22 22
31 29 28 24 21 20 18 15 12 10 9 8 9 9 7 7 8 10 10 9 7 5 7 11 14 17 22 26 28 32 34 29 25 30 33 32 34 36 33 30 30 29 30 30 30 29 28 29 28 27 29 29 28 29 29 29 30 29 26 24 25 25 24 22 20 22 22 22 24 25 26 26 22 21 22 21 21 22 22 22 22 21 21 21 21 21 21 22
29 27 23 20 18 17 15 11 9 7 7 7 6 4 4 5 7 9 8 6 6 6 5 9 12 14 20 26 27 31 33 29 27 31 32 32 33 35 34 32 30 30 31 31 30 30 27 28 29 27 29 31 29 29 29 29 30 30 27 24 24 23 23 24 22 22 22 20 21 24 25 24 23 22 22 20 20 22 21 21 22 21 21 21 20 21 21 21
27 22 18 16 15 14 12 9 7 5 5 3 1 3 5 4 5 6 5 5 5 6 6 9 13 13 19 25 27 30 31 28 29 30 31 32 33 34 35 33 32 30 29 30 30 29 25 26 30 30 29 32 30 28 29 29 30 32 30 26 24 23 23 25 24 22 22 19 19 22 24 23 21 21 24 21 19 21 22 22 22 21 21 20 20 20 20 20
23 17 14 13 13 12 11 8 5 2 2 3 4 5 5 4 3 2 3 4 5 7 8 9 12 13 19 24 26 29 30 28 30 30 30 32 32 34 34 34 34 30 27 28 29 29 26 25 30 30 28 29 30 28 28 28 29 32 31 27 25 24 23 24 24 21 20 20 20 21 21 22 20 17 20 21 17 18 20 21 22 21 20 20 19 20 20 20
20 15 13 12 11 10 9 7 6 6 7 7 6 5 4 3 2 0 2 3 4 5 7 9 12 14 18 22 25 30 29 26 29 29 28 31 32 33 34 33 34 31 27 28 27 28 28 25 27 29 27 30 31 28 27 27 27 29 30 28 27 26 23 21 23 21 17 18 20 20 19 20 20 16 17 19 17 16 18 19 21 20 20 19 18 18 19 18
18 14 12 11 10 8 7 6 6 8 7 6 5 3 2 1 0 1 2 3 4 3 4 6 11 14 17 20 24 30 29 25 28 29 27 30 31 33 34 32 33 32 29 28 26 26 26 24 26 28 27 29 32 30 28 27 26 27 30 30 27 26 22 19 21 19 16 16 18 21 21 18 17 17 18 18 17 16 16 17 19 19 20 19 16 15 16 16
17 14 12 11 9 7 6 7 8 7 7 5 3 2 1 1 1 2 2 4 3 1 2 5 10 11 15 19 23 30 29 24 27 28 26 29 30 31 34 32 32 33 30 27 24 25 24 22 26 30 28 27 31 31 28 27 27 26 29 29 26 25 22 19 19 18 18 19 18 21 24 21 18 17 18 20 20 20 18 17 17 18 18 18 16 15 16 17
18 15 13 10 9 8 8 8 7 6 5 4 3 3 3 2 1 1 2 3 2 1 3 6 9 10 12 16 22 29 28 23 25 27 26 28 28 30 34 32 32 33 30 27 23 23 23 19 23 30 29 26 28 29 28 28 30 28 27 27 25 24 24 22 20 18 20 20 19 21 24 23 21 19 19 22 23 23 21 18 18 18 18 16 16 17 18 18
19 16 15 13 11 10 8 7 6 4 4 4 5 4 4 4 3 3 3 3 1 2 4 6 9 10 10 14 19 26 27 23 25 26 25 26 26 29 33 31 31 34 31 27 23 22 23 19 19 26 28 26 27 29 28 28 30 29 26 27 27 24 23 23 21 19 19 20 19 20 21 21 22 21 22 24 24 23 23 21 19 19 19 17 17 18 19 18
19 16 15 15 13 11 9 8 6 6 5 5 6 5 5 7 5 4 4 2 1 2 4 5 8 9 10 13 17 22 24 23 24 25 24 25 25 27 32 31 31 33 32 27 23 21 22 19 17 23 27 26 27 30 30 27 28 29 27 28 29 25 23 23 22 20 19 18 19 19 19 19 20 19 21 25 25 23 24 22 20 19 19 20 20 20 19 18
17 15 14 14 12 11 10 8 7 7 7 7 7 6 6 7 6 6 4 2 1 2 4 5 9 10 10 13 15 19 21 21 23 24 21 24 25 25 30 31 30 32 31 27 24 22 21 19 18 22 25 26 27 29 29 27 27 28 26 26 28 27 24 23 22 22 20 18 18 19 19 17 16 17 19 23 24 24 24 23 22 21 21 22 22 21 20 19
15 13 13 12 11 11 10 9 8 8 7 7 7 7 7 7 6 6 5 3 2 2 5 6 10 11 11 14 15 17 18 19 24 23 19 23 25 23 29 32 31 32 30 26 24 23 20 18 19 21 23 24 25 27 29 28 27 27 25 24 26 28 26 24 22 22 20 19 18 18 19 16 13 15 16 18 21 22 23 24 23 22 22 23 22 21 20 19
14 13 12 11 11 10 10 9 9 8 7 7 8 8 8 7 6 6 5 3 1 4 6 8 10 11 12 13 14 14 15 18 24 22 18 22 24 23 29 32 30 32 30 25 23 23 19 18 20 21 20 21 23 25 28 29 26 26 27 25 24 27 28 25 22 21 20 19 18 16 16 16 14 14 14 15 18 20 21 23 22 20 21 22 22 20 19 18
14 12 10 9 9 9 9 9 10 9 8 9 9 9 9 7 6 5 4 3 4 7 7 7 9 11 11 11 11 13 14 18 23 20 17 21 22 23 29 31 30 30 29 25 22 22 20 19 21 21 19 21 22 23 28 31 29 27 28 28 26 27 29 26 22 20 19 20 21 17 15 15 16 15 15 14 15 16 17 19 20 20 21 22 21 20 19 19
14 12 10 9 8 8 7 8 9 9 9 10 10 10 9 8 7 6 5 4 5 6 7 7 8 10 10 9 10 13 14 18 21 18 17 20 20 22 28 30 29 30 29 25 22 22 21 20 21 21 20 21 22 23 27 30 29 26 27 30 29 27 29 27 23 21 20 21 22 19 14 13 15 16 17 15 13 13 15 16 18 20 21 21 20 20 20 19
13 12 12 11 10 9 7 7 7 7 8 10 10 9 9 8 8 8 6 6 6 6 6 7 8 8 8 8 9 11 14 19 20 16 18 20 18 21 27 28 28 30 28 24 21 22 20 20 22 22 20 20 21 22 24 27 28 26 27 30 31 28 28 26 24 23 21 20 21 19 16 15 15 16 18 17 15 15 16 16 16 18 19 20 21 21 20 20
12 12 12 13 11 10 9 7 7 6 7 9 8 8 9 8 8 9 7 7 6 5 5 7 8 8 7 8 9 9 12 17 19 17 19 20 18 21 26 27 28 29 26 22 22 23 20 20 23 23 20 19 20 21 23 26 28 28 26 28 30 30 28 26 24 24 22 20 19 18 16 17 17 16 17 17 17 17 17 16 16 17 18 19 20 20 20 20
12 12 12 12 11 11 10 10 9 8 8 8 6 6 8 8 8 8 7 6 5 5 5 6 7 7 6 8 9 9 9 13 17 17 18 19 19 20 23 26 28 28 26 24 23 23 20 20 22 22 20 19 20 21 22 24 26 27 26 27 28 30 31 27 24 25 24 21 18 16 16 17 17 17 18 18 17 16 16 16 16 16 17 18 19 20 20 20
13 12 12 12 11 11 10 10 9 8 8 7 5 6 7 8 8 7 6 5 5 6 7 7 6 5 6 8 8 9 11 11 13 15 15 17 20 20 22 26 27 27 27 25 22 22 20 19 21 21 20 19 18 20 21 22 24 26 27 27 26 27 31 30 26 24 25 23 21 17 16 17 17 18 19 18 17 16 16 16 16 17 18 18 19 19 20 21
13 12 12 12 11 10 9 9 8 7 7 6 5 5 6 7 7 6 6 5 5 6 7 6 5 3 6 8 8 11 12 9 10 12 11 13 18 20 22 24 24 26 28 24 21 21 20 18 19 19 19 19 18 18 21 22 22 24 26 27 26 26 28 31 28 25 23 23 23 21 17 15 16 17 18 18 18 17 17 17 17 18 18 19 19 19 20 20
14 13 13 12 10 9 8 7 7 6 6 5 5 6 6 6 6 6 5 4 5 4 3 4 4 4 6 7 7 10 11 8 9 12 10 11 16 20 22 23 23 26 27 24 21 21 20 17 18 18 18 18 18 18 20 21 20 22 25 26 27 26 26 28 29 27 24 22 22 23 19 15 16 17 16 17 18 18 18 18 17 17 18 19 20 20 20 19
15 13 13 11 9 8 8 7 6 6 6 6 6 7 6 6 6 6 5 3 4 3 1 2 3 5 7 6 7 11 11 9 10 11 10 10 14 18 21 22 22 24 25 23 21 21 20 17 17 19 18 18 19 18 17 18 19 20 22 25 27 27 26 26 28 28 28 24 21 22 20 17 17 17 16 17 18 18 18 18 17 16 17 19 20 20 19 19
Wind_Direction
287 285 283 281 280 280 279 279 277 276 275 274 273 273 272 270 269 268 267 267 267 266 266 266 266 266 266 266 265 264 263 260 257 254 251 249 246 245 244 243 243 242 241 240 239 239 238 238 237 235 236 236 236 236 235 234 234 235 236 238 240 241 241 243 243 245 249 253 256 255 249 245 243 242 244 246 248 251 256 259 256 253 255 248 232 223 226 229
290 288 286 283 281 280 279 279 278 277 275 275 274 273 272 270 269 267 266 266 266 266 266 265 265 265 266 265 265 265 263 259 257 255 251 248 245 244 243 242 241 240 239 238 236 236 236 236 235 233 233 234 234 233 233 232 231 233 235 237 239 240 242 243 244 246 248 250 254 253 245 240 240 241 242 242 246 251 254 254 250 248 243 233 227 221 223 227
292 290 288 286 283 282 281 279 278 277 276 275 275 274 272 271 269 267 266 265 265 265 265 265 264 265 265 265 265 264 262 260 257 253 250 246 243 242 241 240 240 239 238 236 234 234 235 234 233 232 232 233 233 231 231 231 231 232 234 237 239 240 243 243 244 245 246 249 250 247 241 238 240 241 240 243 249 253 254 249 244 243 229 225 228 221 222 225
293 291 289 287 285 283 282 280 279 278 277 276 276 275 273 272 270 267 265 264 264 264 264 264 263 264 264 264 264 263 261 259 254 247 244 243 241 241 240 239 238 237 236 235 234 234 235 234 233 232 231 232 232 231 230 230 231 232 233 237 239 240 242 242 244 245 245 246 245 243 244 243 241 242 244 247 251 251 251 249 245 240 225 223 225 218 222 223
293 291 289 287 285 283 282 280 279 278 277 276 275 275 274 273 271 269 266 264 263 262 262 262 262 263 263 263 262 260 258 254 248 241 240 241 241 242 240 238 237 236 235 234 233 233 235 234 232 231 231 232 231 231 231 229 230 233 234 237 239 240 241 240 241 243 243 243 240 240 245 248 244 244 245 246 247 246 246 251 250 241 223 219 220 216 221 223
293 292 290 288 286 284 282 281 279 278 277 276 275 274 273 272 271 269 267 265 263 261 261 261 261 262 262 262 260 257 251 247 245 242 240 242 243 242 240 237 235 233 232 232 232 231 232 232 230 229 230 231 230 230 231 229 229 234 235 236 237 238 240 240 239 241 241 240 238 239 244 250 251 248 246 243 244 245 247 251 248 240 222 217 222 220 223 225
293 292 290 289 287 285 284 282 280 279 277 276 275 274 272 271 270 268 267 266 264 261 260 259 260 260 261 260 257 253 246 245 249 245 241 243 243 241 238 236 235 232 230 230 230 229 228 229 228 227 229 230 230 230 231 229 229 233 235 236 236 237 238 239 240 243 242 240 241 243 244 247 250 250 247 242 242 244 246 247 240 237 228 220 224 224 224 225
295 293 291 290 288 286 285 283 281 279 278 276 275 274 272 271 269 268 267 265 264 262 260 258 258 258 259 257 253 250 245 245 249 244 240 242 242 240 237 236 235 231 229 229 228 228 227 227 227 226 228 229 229 230 230 230 230 232 234 235 236 237 237 237 240 243 243 242 241 244 246 247 247 248 247 243 243 242 242 244 238 237 233 225 225 225 224 223
296 295 293 291 289 288 286 284 282 281 279 277 275 274 272 271 269 268 266 265 264 261 260 258 256 256 256 254 250 249 246 244 246 242 239 239 238 238 237 236 234 230 228 228 227 226 226 226 226 225 228 230 230 230 229 230 230 232 234 235 236 237 237 237 238 240 241 242 241 243 246 246 246 246 247 243 243 241 239 241 236 235 234 227 224 224 226 222
297 295 294 293 291 289 287 285 283 282 280 278 276 275 273 271 269 268 266 264 263 261 259 257 255 254 253 251 249 246 243 243 243 240 238 237 236 237 237 236 234 231 228 227 226 226 225 225 225 225 229 231 230 230 229 229 231 232 233 235 237 237 237 237 238 238 238 240 240 243 245 245 243 243 244 243 242 241 239 237 232 233 232 225 223 224 226 222
297 295 294 293 291 289 288 286 284 283 281 279 278 276 274 272 269 267 266 264 262 260 258 256 254 253 251 249 247 243 240 241 241 240 240 237 236 236 236 236 234 233 231 227 225 225 224 224 224 225 227 229 230 231 230 230 233 234 234 236 236 235 236 236 237 237 236 238 238 242 246 245 242 240 241 242 240 239 238 235 232 234 230 222 223 223 223 222
298 296 294 293 291 289 288 286 284 283 281 280 278 277 275 273 270 267 265 263 261 259 257 255 253 251 250 248 245 243 242 245 245 245 244 239 237 237 236 236 235 233 231 229 225 224 224 223 223 225 226 226 228 230 231 230 232 235 234 237 236 234 235 235 235 235 235 237 237 240 245 244 241 240 240 240 240 238 235 233 233 234 229 224 223 221 222 222
300 298 296 294 292 290 288 286 284 283 281 280 279 277 276 274 271 268 265 262 261 259 257 255 252 251 250 247 245 244 245 246 246 245 244 240 239 238 236 235 234 232 231 231 227 223 223 222 222 225 226 226 226 228 231 230 231 233 232 235 235 234 235 233 233 233 234 236 235 237 242 242 240 240 239 237 237 236 230 231 234 232 230 228 224 221 221 218
301 299 297 295 293 291 289 287 285 283 281 280 279 277 276 274 272 269 265 262 259 257 255 253 252 250 249 247 247 247 245 244 243 241 240 238 237 236 234 232 231 230 230 230 229 226 223 221 222 225 226 226 226 227 230 229 229 229 230 233 232 234 236 232 230 230 232 235 232 233 241 243 241 238 236 234 233 229 227 233 234 231 229 226 222 220 217 215
302 300 298 296 294 292 289 287 286 284 282 280 278 277 276 274 272 270 266 261 258 256 254 252 250 249 249 248 247 247 243 240 240 238 236 235 234 233 231 229 228 228 227 227 227 225 222 220 221 223 224 225 226 227 228 228 229 226 227 230 229 232 235 232 229 227 230 233 229 231 239 242 242 239 233 231 231 228 229 234 233 230 227 221 221 221 216 213
302 301 299 297 295 293 290 288 286 284 283 281 278 277 275 274 272 269 266 261 257 254 251 249 247 246 248 247 245 245 241 237 236 235 233 231 231 229 228 227 225 224 224 224 224 223 221 220 221 222 222 222 222 224 225 227 227 224 225 227 227 229 232 233 229 226 228 230 228 230 237 240 240 241 233 227 230 229 227 231 232 230 227 221 222 224 222 218
303 302 300 298 296 294 292 290 288 286 283 281 279 277 276 274 271 268 265 259 255 252 248 246 245 245 246 246 245 243 239 235 233 231 229 227 226 226 225 224 222 220 221 221 221 220 219 218 218 220 220 220 219 219 221 224 222 222 224 226 227 227 229 231 230 225 222 225 228 228 234 240 239 239 235 225 227 229 226 228 228 225 225 225 225 228 231 228
304 303 301 300 298 296 294 292 290 287 285 282 280 278 276 274 271 267 263 257 252 249 246 244 241 243 244 240 239 238 235 233 230 227 227 224 221 221 222 221 219 217 217 219 218 217 216 216 216 218 219 218 218 216 219 221 219 219 221 223 226 227 227 227 229 225 217 220 227 228 231 237 238 240 237 227 224 227 225 222 219 215 220 229 230 231 232 231
306 305 303 302 300 298 297 295 292 289 287 284 282 279 277 274 269 264 259 253 248 245 243 240 234 236 240 236 234 235 233 231 229 226 225 221 217 217 218 218 217 214 215 216 216 214 214 214 215 217 217 216 216 216 218 220 219 219 220 222 224 226 228 226 228 224 214 217 226 229 230 232 237 237 235 233 224 222 221 216 217 217 220 229 232 230 229 229
307 306 305 304 302 301 299 297 294 291 288 285 284 282 279 275 268 262 257 251 247 245 243 240 232 232 238 240 236 232 228 227 228 225 222 218 213 213 214 215 214 213 214 215 214 212 212 214 216 217 217 216 216 217 218 219 220 220 221 223 223 225 228 225 225 221 213 219 225 229 229 229 235 231 230 235 222 215 215 213 219 220 220 227 228 229 229 227
309 308 307 305 304 303 301 299 296 292 288 285 284 282 279 276 270 267 263 254 248 246 244 241 235 232 234 236 235 231 230 228 225 223 220 216 211 211 211 211 212 213 213 213 212 211 212 217 218 216 216 216 216 217 217 218 221 224 223 224 223 223 226 224 222 218 214 221 225 225 227 227 229 228 229 231 217 213 214 213 219 219 220 225 225 227 228 226
310 308 307 306 305 304 302 300 296 292 288 284 280 278 276 275 272 270 266 258 251 246 244 242 238 235 233 233 231 230 233 229 224 221 217 213 211 210 209 209 212 213 210 211 211 210 214 219 217 215 215 216 215 216 217 217 219 224 224 224 224 221 223 224 222 218 216 221 224 221 222 224 226 226 230 226 214 215 214 212 219 220 220 224 224 226 225 223
311 310 308 307 306 305 304 301 297 293 287 282 278 275 276 275 273 271 266 259 255 248 243 240 238 236 233 231 228 227 231 228 224 221 214 211 211 209 208 208 211 211 208 210 211 211 216 219 215 213 214 214 215 214 215 216 217 220 222 224 225 219 218 221 220 217 215 219 222 219 220 224 224 224 229 224 210 210 210 207 213 217 218 220 222 223 220 219
313 311 309 308 308 306 305 302 298 293 286 280 277 276 277 276 273 270 264 259 256 249 243 239 236 234 232 230 227 226 228 226 223 219 212 210 209 208 209 209 209 211 210 210 212 214 217 216 213 212 213 213 214 213 212 214 215 217 220 222 223 219 216 216 217 214 212 216 220 221 223 224 224 224 224 219 208 211 213 211 214 218 220 220 220 219 217 217
315 313 311 310 309 308 306 303 299 293 288 282 278 278 278 276 273 268 262 257 254 250 244 238 235 234 230 227 225 224 226 224 220 217 212 209 207 207 209 209 209 211 210 209 212 215 216 214 210 211 211 211 213 213 211 212 214 216 218 220 222 220 215 214 215 211 211 219 220 221 228 226 223 224 222 216 215 219 220 219 219 218 219 221 221 218 218 218
317 315 312 310 309 309 307 302 298 295 291 285 281 279 276 274 272 266 259 256 256 252 242 233 231 231 225 222 220 218 223 224 218 214 213 210 207 207 208 208 209 211 209 208 211 215 215 211 209 209 210 209 211 213 211 209 212 215 215 217 220 221 214 211 212 208 212 223 222 220 228 229 223 223 222 218 215 219 222 221 220 218 219 222 221 218 218 218
318 316 314 312 310 310 307 301 298 295 289 285 284 280 275 273 269 262 255 253 255 251 237 225 222 221 219 217 213 211 217 219 213 212 211 209 207 207 208 207 207 210 207 206 211 213 212 209 207 208 208 208 210 212 210 208 211 215 212 212 216 220 218 213 210 208 213 224 226 221 223 228 227 221 219 218 213 214 218 219 221 220 219 220 220 218 217 217
319 317 316 314 311 309 305 300 297 292 286 284 285 280 275 272 262 251 244 242 248 247 228 216 214 216 215 212 207 208 212 210 209 210 207 207 206 205 208 208 206 207 205 206 210 210 209 209 206 205 207 209 209 210 209 207 210 213 210 209 213 218 222 216 212 214 217 223 227 221 217 223 229 220 215 216 212 212 214 216 220 219 217 219 220 218 216 217
319 319 318 316 313 309 306 302 296 290 287 282 280 280 276 268 251 235 230 232 239 244 222 209 211 215 212 205 204 207 209 208 208 205 202 205 205 204 208 208 206 206 206 208 210 208 208 209 207 205 208 209 208 209 209 207 208 211 209 208 211 218 221 217 219 221 221 225 227 218 211 217 226 222 218 217 213 214 215 215 218 218 217 220 220 217 215 216
319 319 320 318 316 315 311 304 296 291 289 281 278 281 272 253 232 222 220 219 226 240 227 212 211 213 207 201 201 203 206 208 205 197 198 202 202 203 207 208 207 206 206 208 211 209 207 208 209 207 208 209 207 208 209 207 206 208 209 207 208 215 217 218 226 223 219 225 226 221 214 214 223 224 221 221 215 213 217 218 218 220 220 220 220 216 214 215
321 320 321 321 321 322 317 308 301 297 292 286 286 281 255 229 215 213 207 205 219 238 232 218 214 214 206 199 199 200 203 207 201 193 196 199 198 201 203 204 205 204 204 207 208 209 205 204 208 208 206 206 206 206 207 207 206 205 207 206 205 210 212 216 222 217 217 223 223 222 219 215 221 224 221 223 216 210 216 220 221 222 220 219 218 215 213 215
325 323 323 325 326 328 324 313 305 300 296 294 290 258 212 201 198 204 206 210 222 230 239 228 221 219 207 199 198 198 200 203 199 194 195 197 197 199 201 201 199 199 201 202 203 206 205 204 206 205 203 204 204 203 204 205 204 203 206 205 202 204 207 212 215 213 217 223 219 219 220 218 222 224 223 225 218 212 217 220 219 218 216 215 214 212 212 213
330 329 330 332 335 341 341 330 315 299 300 305 261 175 174 179 174 191 215 225 225 232 248 235 225 222 207 198 196 195 197 199 196 194 195 196 197 198 201 202 199 199 200 198 198 201 202 202 204 203 201 203 202 200 201 202 201 202 204 204 202 202 204 208 212 213 217 223 222 218 220 221 222 223 224 227 225 218 216 215 212 211 210 210 209 208 208 208
338 337 340 341 343 349 356 1 11 23 55 92 119 136 149 164 161 178 233 240 253 253 247 231 223 219 202 195 193 191 194 196 193 192 194 195 196 197 200 201 200 199 198 196 197 199 200 200 201 200 199 201 202 201 201 201 201 202 205 207 207 206 206 208 210 214 216 220 222 219 220 220 220 221 219 221 224 218 211 209 208 207 206 205 205 205 205 204
347 348 351 352 352 356 7 25 52 73 87 98 106 126 146 157 155 297 291 283 294 272 247 229 214 202 192 194 194 189 191 194 190 191 194 195 196 197 198 199 198 197 197 196 196 198 201 202 198 198 199 201 204 205 203 202 202 202 204 208 209 206 207 210 212 215 218 221 220 218 221 220 219 223 219 216 217 211 203 201 203 206 203 201 202 203 203 202
358 1 2 1 2 8 27 50 71 83 89 91 92 115 159 183 320 335 336 322 318 292 255 221 195 189 188 192 192 188 191 193 189 191 194 195 197 197 197 198 196 197 197 195 194 196 199 200 196 197 201 202 204 206 205 203 202 200 203 208 207 205 207 210 213 214 219 224 219 216 219 217 214 221 220 213 207 201 198 197 201 205 201 199 201 201 200 201
6 8 7 8 13 28 55 73 84 88 81 74 61 29 359 331 282 308 338 341 338 288 215 188 177 182 187 188 187 186 187 189 189 192 192 193 197 196 196 197 196 197 198 196 195 195 195 198 199 201 204 203 203 206 207 205 201 200 204 205 203 207 213 214 212 212 216 221 219 216 217 214 212 215 213 207 203 202 203 200 201 204 201 198 200 201 200 201
14 16 18 24 39 57 73 82 89 87 67 45 9 353 8 6 349 351 351 349 354 182 189 182 176 177 179 183 185 184 185 186 188 191 191 192 196 195 195 196 195 197 199 197 195 194 194 197 199 201 204 203 201 204 206 204 203 204 205 202 200 207 212 213 212 211 213 217 219 219 217 216 218 215 209 208 207 205 206 204 201 205 206 204 201 199 199 201
26 30 35 41 51 62 70 73 72 61 44 26 12 18 23 10 5 4 4 7 359 213 197 183 179 179 179 183 185 185 186 186 186 190 191 192 194 194 194 195 194 195 197 195 193 194 195 197 197 197 199 198 198 202 204 201 201 205 205 203 206 210 211 211 213 213 213 215 218 218 217 218 221 218 211 211 209 207 210 212 209 208 211 212 207 201 202 206
28 35 41 46 51 56 59 56 49 41 34 23 15 10 0 358 359 359 5 15 340 214 193 185 183 181 179 181 185 186 188 186 186 189 191 191 191 191 192 193 192 193 196 196 195 194 195 198 196 192 193 195 198 202 204 199 197 202 205 205 207 211 210 211 213 213 213 216 216 218 220 219 220 221 217 213 211 211 213 215 215 214 211 211 212 209 208 211
23 28 35 41 44 47 44 38 36 31 22 14 11 3 352 354 356 356 0 341 281 215 192 190 185 179 174 179 183 186 188 187 186 189 190 188 189 189 190 191 190 190 193 197 197 194 194 197 193 189 192 197 201 203 203 201 199 202 206 207 206 208 207 208 212 212 213 216 216 218 222 220 219 225 222 214 212 215 215 214 217 218 211 208 212 212 209 210
16 23 28 30 30 30 24 19 19 17 12 8 4 358 356 357 354 354 352 320 282 194 178 176 175 175 174 177 180 184 189 187 185 189 188 186 190 190 188 189 189 189 191 194 195 192 192 194 191 193 197 199 201 201 203 205 204 204 207 208 206 206 208 209 211 210 212 215 217 218 220 219 221 223 219 214 213 214 216 216 218 219 209 203 208 210 208 208
13 16 21 22 21 20 15 12 12 12 14 10 360 355 356 357 356 357 2 2 98 145 156 163 166 168 170 172 177 186 193 188 185 187 185 184 189 190 186 186 187 188 190 192 191 189 191 192 192 195 198 198 200 201 204 208 207 205 209 210 207 207 209 211 212 210 212 215 214 216 216 215 218 218 215 214 214 215 217 215 212 209 203 200 204 208 208 207
7 6 10 14 17 16 12 12 13 16 15 8 4 5 7 12 12 10 23 54 114 139 149 159 162 163 167 172 180 190 195 186 182 185 185 182 186 188 184 183 185 188 189 191 189 188 191 192 191 193 192 192 197 199 202 207 208 207 207 209 211 208 206 210 213 212 215 217 214 215 216 213 215 216 215 215 214 212 210 204 200 200 200 202 205 207 207 207
4 6 10 11 11 11 11 12 12 13 11 7 7 10 14 23 28 29 42 67 111 140 149 157 162 166 173 178 181 188 193 184 178 182 184 179 181 185 183 182 186 188 188 190 188 187 191 192 191 194 195 195 199 201 200 202 205 207 207 209 213 210 206 208 211 212 214 216 217 219 214 206 209 212 211 212 211 206 200 195 195 200 202 204 207 209 209 208
5 10 12 10 6 1 359 358 358 3 8 7 7 12 15 20 29 43 63 79 92 111 134 150 158 164 171 172 171 177 183 180 177 179 180 178 179 184 184 184 187 186 186 190 189 188 193 197 197 200 202 203 205 204 199 199 203 206 206 207 210 211 210 209 209 211 213 215 220 221 210 201 206 208 207 208 207 205 205 201 199 202 204 204 207 209 210 209
6 10 11 9 6 4 3 358 355 357 1 3 7 13 15 18 30 49 70 82 80 85 118 149 157 160 163 164 165 172 177 177 177 179 178 177 178 179 182 186 188 188 189 192 191 190 194 199 202 204 205 204 204 202 198 200 206 209 208 207 207 208 211 213 211 211 212 216 219 213 202 204 210 208 206 206 204 203 205 204 203 205 207 206 205 207 208 209
7 7 7 8 6 6 6 1 356 353 350 356 9 13 14 22 30 40 56 72 81 88 107 139 151 153 162 167 169 174 173 173 177 177 175 177 178 177 181 185 188 190 191 189 189 192 196 200 201 203 206 205 201 201 201 202 207 211 212 211 209 207 212 216 214 211 212 217 218 207 202 210 215 213 211 208 204 201 201 202 204 205 205 205 205 206 208 208
6 2 4 7 3 357 353 349 348 350 352 359 13 17 15 21 26 32 48 70 99 102 101 126 143 144 163 173 175 173 167 167 173 172 172 180 183 181 180 183 186 188 188 188 190 193 197 200 200 201 206 206 202 203 203 201 205 208 210 212 210 210 214 216 214 212 214 218 219 215 214 217 216 215 213 209 205 202 201 202 204 203 203 204 206 208 208 208
5 1 359 360 358 353 350 353 357 2 8 10 13 15 12 14 19 25 42 74 113 109 98 122 148 153 164 168 169 169 165 165 174 173 174 182 184 181 180 182 184 185 187 191 194 194 196 200 202 203 205 207 211 212 204 200 206 209 209 211 212 211 213 214 214 215 215 217 218 219 222 222 215 209 206 204 204 205 204 204 205 204 204 207 208 208 208 209
4 359 356 354 358 359 359 7 11 9 17 23 15 7 2 7 13 10 21 82 144 150 110 119 126 122 141 156 169 172 167 164 175 180 183 186 185 183 182 184 185 184 188 194 195 194 197 202 204 204 203 204 211 213 205 201 207 211 212 213 213 213 213 213 215 216 216 216 216 217 219 215 206 202 203 206 206 205 204 204 204 204 204 206 209 209 210 210
4 3 1 359 1 1 359 4 7 4 13 18 9 1 355 356 2 2 12 75 152 175 133 119 116 112 126 149 174 177 175 175 180 186 185 183 186 184 182 185 187 186 188 192 193 194 197 202 203 201 202 204 207 212 212 209 209 212 212 213 213 213 213 213 214 216 216 216 216 215 214 209 206 206 207 208 207 206 206 206 207 206 204 204 206 207 209 209